Zurück zum Katalog

OSCAR 15

UOSAT 4

AktivAmateurfunkSSO
NORAD 20438·PAYLOAD·🇬🇧 United Kingdom

Gestartet Jan 22, 1990 von Guiana Space Centre

Loading…

Nächste Überflüge (nächste 24 Stunden)

TLE

AktuellSource: Space-Track

Epoche: Sep 14, 2026, 15:42 UTC

1 20438U 90005C   26257.65470712  .00000026  00000-0  26640-4 0  9995
2 20438  98.7747 315.2950 0010901  89.6536  63.2915 14.31734713913029

Verfolge OSCAR 15 in Echtzeit mit AllMySat

Download on the App Store